Location: Aula-Vintri
(58.3875°N, 22.4322°E)
Time: 23:46:00
(UTC+00:00)

Envisat - Pass Details

Date: 13 October 2019
Orbit: 764 x 766 km, 98.1° (Epoch: 22 November)

Event Time Altitude Azimuth Distance (km) Brightness Sun altitude
Rises 16:52:08 0° 181° (S) 3,226 6.2 -11.3°
Reaches altitude 10° 16:54:31 10° 188° (S) 2,304 5.5 -11.6°
Maximum altitude 16:59:24 47° 261° (W) 1,019 4.2 -12.3°
Drops below altitude 10° 17:04:20 10° 336° (NNW) 2,320 5.9 -12.9°
Sets 17:06:45 0° 342° (NNW) 3,250 6.6 -13.2°
